Home   Weather   Saipan   Past weeks

Flag for Northern Mariana Islands Past Weather in Saipan, Northern Mariana Islands — Yesterday and Last 2 Weeks

Now
80 °F

Passing clouds.


Feels Like: 84 °F
Forecast: 76 / 80 °F
Wind: 12 mph from East

Location: Saipan International Airport

Current Time: Dec 7, 2016 at 8:30:23 pm

Latest Report: Dec 7, 2016 at 7:54 pm


Visibility: 10 mi

Pressure: 29.93 "Hg

Humidity: 76%

Dew Point: 72 °F

Location of SaipanLocation

Past Weather in Saipan — Graph

°F

Saipan Temperature Yesterday

Maximum temperature yesterday: 85 °F (at 9:54 am)
Minimum temperature yesterday: 80 °F (at 8:54 pm)
Average temperature yesterday: 82 °F

High & Low Weather Summary for the Past Weeks

 TemperatureHumidityPressure
High89 °F (Nov 23, 12:54 pm)94% (Nov 26, 2:54 am)30.05 "Hg (Nov 26, 2:54 am)
Low76 °F (Nov 26, 12:54 am)61% (Nov 30, 12:54 pm)29.82 "Hg (Dec 6, 3:31 pm)
Average83 °F79%29.94 "Hg
* Reported Nov 22 6:54 pm — Dec 7 6:54 pm, Saipan, Weather by CustomWeather, © 2016

Note: Actual official high and low records may vary slightly from our data, if they occured in-between our weather recording intervals... More about our weather records

Advertising

Saipan Weather History for the Previous 24 Hours

Scroll right to see more
 ConditionsComfort  
Time TempWeatherWind HumidityBarometerVisibility
6:54 pm
Wed, Dec 7
80 °FPassing clouds.12 mph76%29.93 "Hg10 mi
5:54 pm80 °FPassing clouds.12 mph76%29.91 "Hg10 mi
4:54 pm81 °FScattered clouds.13 mph72%29.90 "Hg10 mi
3:54 pm84 °FScattered clouds.15 mph67%29.89 "Hg10 mi
2:54 pm87 °FPartly sunny.12 mph61%29.88 "Hg10 mi
1:54 pm86 °FPartly sunny.14 mph63%29.89 "Hg10 mi
12:54 pm87 °FScattered clouds.17 mph63%29.90 "Hg10 mi
11:54 am87 °FScattered clouds.15 mph65%29.93 "Hg10 mi
10:54 am86 °FScattered clouds.17 mph65%29.95 "Hg10 mi
9:54 am86 °FBroken clouds.16 mph67%29.97 "Hg10 mi
8:54 am84 °FMostly cloudy.15 mph74%29.98 "Hg10 mi
8:26 am82 °FBroken clouds.12 mph79%29.91 "Hg10 mi
7:54 am82 °FScattered clouds.16 mph79%29.96 "Hg10 mi
6:54 am81 °FScattered clouds.17 mph82%29.95 "Hg10 mi
5:54 am80 °FPartly cloudy.14 mph85%29.93 "Hg10 mi
4:54 am81 °FOvercast.15 mph82%29.92 "Hg10 mi
3:54 am81 °FPartly cloudy.18 mph82%29.91 "Hg10 mi
2:54 am81 °FPartly cloudy.14 mph88%29.90 "Hg10 mi
1:54 am81 °FPartly cloudy.15 mph88%29.92 "Hg10 mi
12:54 am81 °FPartly cloudy.15 mph88%29.93 "Hg10 mi
11:54 pm
Tue, Dec 6
81 °FLight rain. Partly cloudy.17 mph88%29.94 "Hg10 mi
11:17 pm81 °FPartly cloudy.13 mph89%29.88 "Hg10 mi
11:06 pm81 °FMostly cloudy.12 mph89%29.88 "Hg10 mi
10:54 pm81 °FLight rain. Passing clouds.13 mph88%29.95 "Hg9 mi
9:54 pm81 °FPassing clouds.14 mph85%29.95 "Hg10 mi
8:54 pm80 °FPassing clouds.10 mph90%29.94 "Hg10 mi
Weather by CustomWeather, © 2016

See weather overviewHow to use our weather pages